SCP
0 0 0 0 0 0 0 0 0 0 0 0 0 0 0 0 0 0 0 0 1 1 1 1 1 1 2 2 2 2 2 1 2 1 2 2 1 1 0 0 0 0 0
0 0 0 0 0 0 0 0 0 0 0 0 0 0 0 0 0 0 0 0 0 1 1 1 1 1 1 1 2 1 2 3 2 1 2 1 1 1 0 1 1 1 0
0 0 0 0 0 0 0 0 0 0 0 0 0 0 0 0 0 0 0 0 0 0 1 1 1 1 1 2 2 2 2 3 2 2 2 1 1 1 0 1 1 1 1
-0 -0 -0 -0 -0 -0 0 0 0 0 0 0 0 0 0 0 0 0 0 0 0 0 0 0 1 1 1 2 2 1 2 2 2 2 1 1 1 1 1 1 1 1 1
-0 -0 -0 -0 -0 -0 -0 0 0 0 0 0 0 0 0 0 0 0 0 0 0 0 0 0 0 0 0 0 1 2 2 2 2 2 2 1 1 1 1 1 1 1 1
0 -0 -0 -0 -0 -0 -0 -0 0 0 0 0 0 0 0 0 0 0 0 0 0 0 0 0 0 0 0 0 0 0 0 1 1 2 2 1 1 1 1 1 1 0 0
0 0 -0 -0 -0 -0 -0 -0 0 0 0 0 0 0 0 0 0 0 0 0 0 0 0 0 0 0 0 0 0 0 0 0 0 1 1 1 1 1 1 1 1 1 1
0 0 0 -0 -0 -0 -0 -0 0 0 0 0 0 0 0 0 0 0 0 0 0 0 0 0 0 0 0 0 0 0 0 0 0 0 0 0 1 1 1 1 1 1 1
0 0 0 0 -0 -0 -0 0 0 0 0 0 0 0 0 0 0 0 0 0 0 0 0 0 0 0 0 0 0 0 0 0 0 0 0 0 0 0 0 0 0 0 0
0 0 0 0 0 0 0 0 0 0 0 0 0 0 0 0 0 0 0 0 0 0 0 0 0 0 0 0 0 0 0 0 0 0 0 0 0 0 0 0 0 0 0
0 0 0 0 0 0 0 0 0 0 0 0 0 0 0 0 0 0 0 0 0 0 0 0 0 0 0 0 0 0 0 0 0 0 0 0 0 0 0 0 0 0 0
0 0 0 0 0 0 0 0 0 0 0 0 0 0 0 0 0 0 0 0 0 0 0 0 0 0 0 0 0 0 0 0 0 0 0 0 0 0 0 0 0 0 0
0 0 0 0 0 0 0 0 0 0 0 0 0 0 0 0 0 0 0 0 0 0 0 0 0 0 0 0 0 0 0 0 0 0 0 0 0 0 1 1 0 0 0
0 0 0 0 0 0 0 0 0 0 0 0 0 0 0 0 0 0 0 0 0 0 0 0 0 0 0 0 0 0 0 0 0 0 0 0 0 0 0 0 0 0 0
0 0 0 0 0 0 0 0 0 0 0 0 0 0 0 0 0 0 0 0 0 0 0 0 0 0 0 0 0 0 0 0 0 0 0 0 0 0 0 0 0 0 0
0 0 0 0 0 0 0 0 0 0 0 0 0 0 0 0 0 0 0 0 0 0 0 0 0 0 0 0 0 0 0 0 0 0 0 0 0 0 0 0 0 0 0
0 0 0 0 0 0 0 0 0 0 0 0 0 0 0 0 0 0 0 0 0 0 0 0 0 0 0 0 0 0 0 0 0 0 0 0 0 0 0 0 0 0 0
0 0 0 0 0 0 0 0 0 0 0 0 0 0 0 0 0 0 0 0 0 0 0 0 0 0 0 0 0 0 0 0 0 0 0 0 0 0 0 0 0 0 0
0 0 0 0 0 0 0 0 0 0 0 0 0 0 0 0 0 0 0 0 0 0 0 0 0 0 0 0 0 0 0 0 0 0 0 0 0 0 0 0 0 0 0
0 0 -0 0 0 0 0 0 0 0 0 0 0 0 0 0 0 0 0 0 0 0 0 0 0 0 0 0 0 0 0 0 0 0 0 0 0 0 0 0 0 0 0
-0 0 0 0 0 0 0 0 0 0 0 0 0 0 0 0 0 0 0 0 0 0 0 0 0 0 0 0 0 0 0 0 0 0 0 0 0 0 0 0 0 0 0
0 0 0 0 0 0 0 0 0 0 0 0 0 0 0 0 0 0 0 0 0 0 0 0 0 0 0 0 0 0 0 0 0 0 0 0 0 0 0 0 0 0 0
-0 0 0 0 0 0 0 0 0 0 0 0 0 0 0 0 0 0 0 0 0 0 0 0 0 0 0 0 0 0 0 0 0 0 0 0 0 0 0 -0 -0 0 0
-0 -0 -0 -0 0 0 -0 0 0 0 0 0 0 0 0 0 0 0 0 0 -0 -0 0 -0 -0 0 0 -0 0 -0 -0 0 -0 0 0 -0 -0 -0 -0 -0 0 0 0
-0 -0 -0 -0 -0 -0 0 0 0 0 0 0 0 0 0 0 -0 -0 0 0 -0 -0 0 -0 0 0 -0 0 0 -0 0 -0 -0 -0 -0 -0 -0 -0 -0 0 0 0 0
-0 -0 -0 0 0 0 0 0 0 0 0 0 0 -0 -0 -0 -0 0 -0 -0 -0 0 -0 0 -0 -0 -0 -0 -0 -0 0 0 0 -0 -0 -0 0 0 0 0 0 0 0
Wind_Speed_500mb
30 29 36 38 35 31 25 14 10 9 7 1 6 10 11 9 9 10 13 16 21 28 38 45 48 45 49 50 48 43 46 45 39 41 41 35 37 51 38 41 42 44 41
30 35 43 44 38 36 27 24 23 15 13 8 6 6 7 5 7 7 8 13 16 23 26 32 33 36 47 46 47 47 41 44 39 39 36 37 37 40 38 36 36 36 35
31 33 37 38 35 33 32 29 25 21 22 11 9 8 12 6 9 7 8 10 11 15 23 26 30 36 39 40 41 40 42 45 46 42 38 35 36 36 32 36 33 31 39
23 26 26 28 22 18 20 20 19 24 33 26 19 11 13 9 13 9 9 11 9 10 15 18 23 28 31 30 35 38 38 38 36 37 35 35 35 32 32 30 31 27 30
19 17 20 23 19 21 20 19 19 19 19 20 20 17 14 8 19 19 15 13 13 12 13 16 18 28 32 40 43 41 41 40 35 37 37 34 35 34 32 29 28 28 29
14 19 21 25 26 26 25 21 22 21 20 19 19 20 21 15 31 24 24 23 17 17 16 19 18 22 20 21 24 35 42 42 41 42 40 39 37 35 34 34 30 30 32
24 27 29 28 28 31 30 26 24 27 25 23 22 22 20 19 34 33 32 30 29 23 24 24 24 21 26 17 21 20 18 20 24 31 40 42 39 38 35 36 31 31 32
21 26 29 32 29 29 29 28 28 28 29 25 23 23 22 18 27 24 31 38 35 32 30 29 31 30 28 30 26 24 26 25 27 28 27 25 30 33 37 29 29 37 36
27 30 31 34 33 33 32 32 32 31 29 28 26 25 23 23 29 24 26 24 22 28 32 34 35 34 35 39 39 33 32 32 31 36 35 37 40 40 40 42 41 35 38
32 33 35 34 35 38 39 38 36 30 29 29 29 28 27 28 31 34 30 22 24 25 26 26 31 36 46 48 48 44 36 36 33 31 33 38 37 40 40 47 46 44 48
35 36 38 37 36 36 37 34 32 30 28 29 28 29 28 26 26 33 31 31 26 29 29 29 26 36 44 43 52 58 50 50 48 43 38 35 33 34 33 32 32 36 47
38 36 35 33 32 38 33 27 27 25 23 24 28 27 26 25 29 33 34 34 37 38 35 29 30 44 40 44 45 50 58 59 55 43 42 41 40 37 37 33 31 35 44
38 37 36 35 32 28 30 24 24 25 27 27 28 29 30 28 29 33 40 34 37 34 28 31 38 40 45 46 41 37 44 51 52 41 41 42 43 40 39 36 38 40 47
39 38 36 34 33 32 30 31 28 31 34 35 34 38 39 37 36 33 30 27 36 36 37 43 40 36 39 41 40 36 33 31 34 37 39 40 40 38 38 37 39 44 48
34 33 31 32 35 41 39 38 36 35 39 43 44 43 44 46 43 47 54 59 54 50 53 48 35 32 34 36 37 33 34 34 37 37 38 37 39 40 40 38 39 44 50
27 25 31 36 35 40 39 39 37 49 47 37 40 43 49 53 55 55 57 56 54 55 56 52 37 36 39 41 41 39 38 42 44 43 41 49 49 47 45 40 38 38 43
26 30 30 34 33 33 33 34 40 39 41 43 33 29 34 39 39 45 47 47 44 47 50 45 40 41 43 42 40 40 43 41 43 43 39 36 38 48 48 45 42 38 41
28 31 26 25 29 34 34 35 36 36 35 32 27 29 30 32 33 36 32 36 36 34 34 35 37 40 43 45 43 37 37 38 41 39 38 36 46 42 38 37 37 38 43
22 24 26 23 27 36 28 29 26 28 26 29 32 30 29 27 24 24 25 26 25 24 28 31 39 39 34 37 39 40 41 40 45 46 45 47 43 47 43 42 41 43 46
26 26 23 22 23 29 31 24 22 23 22 27 27 31 28 25 20 19 18 13 12 11 14 16 18 22 27 35 45 49 49 43 42 40 47 46 47 43 46 43 43 50 44
17 25 19 17 21 19 23 22 23 23 23 22 23 21 20 17 16 23 27 22 21 22 22 20 20 22 25 25 25 32 38 33 34 38 42 46 49 50 50 50 54 56 53
17 20 20 20 21 19 18 19 23 27 29 23 13 10 15 25 29 31 32 27 25 27 25 23 21 22 20 18 19 24 29 32 32 36 41 44 49 51 52 52 52 54 51
25 20 22 23 25 25 25 26 24 28 33 36 32 24 20 24 25 26 26 28 29 28 28 29 31 22 19 20 19 24 29 31 34 40 46 47 49 47 46 52 55 53 47
18 17 25 21 22 24 32 25 24 26 28 29 29 26 24 23 26 29 26 22 16 21 24 29 32 38 34 30 30 32 32 36 41 42 42 44 44 44 48 49 48 47 49
19 19 19 20 20 22 23 23 25 27 28 27 26 26 25 26 26 26 26 26 28 29 29 31 32 36 34 32 34 28 29 37 37 43 36 32 36 35 35 35 28 33 40
17 17 17 18 20 21 21 23 23 25 26 26 25 26 26 28 32 39 33 30 30 33 34 31 35 38 43 33 31 29 30 37 42 36 27 24 24 21 21 20 19 22 23
Wind_Direction_500mb
44 40 43 35 27 17 33 17 12 347 336 321 281 288 289 286 272 268 267 264 262 260 259 261 257 254 255 255 249 251 248 249 252 262 261 274 274 282 277 269 266 254 253
28 23 23 16 5 1 346 342 354 338 330 354 312 294 281 292 301 288 276 259 270 276 271 266 266 268 262 258 254 252 243 243 242 249 250 261 277 276 274 273 268 250 245
7 5 9 11 357 336 333 323 306 311 320 328 345 287 271 275 273 281 280 275 275 277 281 273 274 276 270 256 257 256 251 246 247 245 250 265 276 280 283 275 275 260 248
357 356 7 3 7 339 351 347 322 303 285 292 293 295 282 285 276 280 282 286 287 280 286 290 286 276 269 266 266 253 253 249 246 249 252 261 272 276 275 272 268 272 248
349 345 349 360 343 346 340 344 338 339 322 295 278 278 291 281 255 269 266 285 288 294 298 293 288 281 275 260 255 258 256 255 253 251 253 259 263 274 273 272 267 258 251
337 341 344 340 349 337 329 334 324 321 314 317 322 310 289 275 267 270 268 268 283 290 290 288 294 310 302 302 279 262 258 260 261 255 257 258 256 268 273 265 265 258 249
329 332 332 334 335 327 322 320 310 309 308 313 313 306 300 293 274 269 270 272 274 280 281 284 287 278 293 287 297 290 280 272 271 271 267 264 265 262 272 266 263 261 256
313 319 324 328 328 317 313 310 309 304 300 298 298 300 300 300 293 298 283 274 274 273 276 278 279 277 281 277 287 283 276 275 274 276 273 274 272 271 266 271 274 266 259
313 314 318 320 319 314 312 310 310 304 297 293 295 295 297 299 299 303 299 292 285 274 275 273 271 271 271 268 276 283 277 273 277 272 269 271 270 265 267 274 276 274 278
309 307 308 309 307 309 305 303 302 303 297 295 290 294 296 301 303 300 301 302 293 290 288 287 283 276 269 264 265 268 271 272 272 263 278 277 273 272 270 271 273 268 270
301 302 302 298 295 299 300 297 295 290 289 290 292 293 293 292 287 294 303 305 294 285 285 289 285 277 276 278 267 259 258 255 257 269 276 275 272 274 272 273 268 265 270
308 305 300 298 301 297 296 291 290 293 291 287 288 292 293 288 293 301 301 297 296 297 296 290 285 283 283 283 280 270 259 259 260 265 266 266 266 266 270 271 259 259 269
306 305 303 304 302 306 306 299 297 296 296 298 298 296 294 291 290 298 307 312 305 293 284 282 289 289 289 287 286 281 271 263 260 258 258 260 262 263 260 269 278 281 286
300 301 301 304 306 309 303 299 297 302 302 301 299 295 296 291 291 294 292 291 298 303 295 299 296 299 296 290 283 288 277 264 258 255 257 258 260 263 270 272 276 275 276
295 293 300 300 299 304 303 302 301 297 289 292 293 289 288 286 283 279 277 278 283 286 290 292 293 289 283 280 286 274 265 264 262 258 256 258 263 269 272 274 273 274 273
306 308 305 309 306 304 304 301 295 290 299 303 299 294 290 280 284 283 281 282 281 279 275 279 280 276 273 272 272 275 274 268 264 261 256 271 276 282 281 279 278 275 272
311 312 312 310 308 307 309 310 312 315 315 317 315 303 299 297 295 294 289 284 279 273 271 272 272 273 278 279 280 275 265 266 267 265 258 264 276 282 278 279 279 275 279
311 305 303 300 312 316 314 312 312 317 321 325 321 318 307 305 302 306 301 289 288 287 287 275 269 273 272 270 272 270 276 272 265 266 264 263 283 277 273 270 272 275 281
321 317 311 322 324 332 325 327 327 332 329 338 340 336 326 322 328 327 315 311 300 282 279 277 281 286 274 268 271 271 278 273 268 269 272 273 270 274 268 268 271 274 275
331 328 314 323 327 339 341 345 341 335 337 336 336 333 325 342 353 358 1 348 339 326 308 299 296 292 279 273 274 280 285 280 277 266 267 269 269 267 268 271 272 277 274
346 358 3 350 346 342 340 343 351 349 343 338 338 340 353 344 332 333 338 339 331 328 318 319 313 313 299 291 289 291 292 287 278 277 278 277 275 274 274 274 275 275 274
3 7 1 7 357 354 359 27 18 14 9 355 351 351 8 16 5 2 3 2 358 346 346 342 345 344 328 319 316 314 306 299 292 287 285 284 283 280 275 272 268 268 270
36 25 25 18 17 11 17 42 22 18 13 6 356 353 357 14 4 359 1 3 360 7 17 15 2 345 343 340 341 335 322 313 309 305 300 291 289 280 282 280 273 268 265
34 20 17 15 9 14 12 16 12 7 8 6 1 19 27 18 12 7 359 3 18 25 23 17 3 359 355 350 342 334 332 325 316 317 306 295 290 287 283 282 274 263 264
21 21 19 19 20 16 14 10 11 14 13 11 9 19 29 22 14 20 34 43 40 27 19 11 4 2 354 344 339 336 330 332 327 320 314 302 295 293 289 280 266 267 268
21 24 17 18 19 21 24 26 23 22 22 19 19 27 23 28 37 29 25 29 36 21 17 10 11 8 360 355 353 352 350 352 350 352 342 337 324 311 283 276 265 284 278
Wind_Speed_850mb
30 29 36 38 35 31 25 14 10 9 7 1 6 10 11 9 9 10 13 16 21 28 38 45 48 45 49 50 48 43 46 45 39 41 41 35 37 51 38 41 42 44 41
30 35 43 44 38 36 27 24 23 15 13 8 6 6 7 5 7 7 8 13 16 23 26 32 33 36 47 46 47 47 41 44 39 39 36 37 37 40 38 36 36 36 35
31 33 37 38 35 33 32 29 25 21 22 11 9 8 12 6 9 7 8 10 11 15 23 26 30 36 39 40 41 40 42 45 46 42 38 35 36 36 32 36 33 31 39
23 26 26 28 22 18 20 20 19 24 33 26 19 11 13 9 13 9 9 11 9 10 15 18 23 28 31 30 35 38 38 38 36 37 35 35 35 32 32 30 31 27 30
19 17 20 23 19 21 20 19 19 19 19 20 20 17 14 8 19 19 15 13 13 12 13 16 18 28 32 40 43 41 41 40 35 37 37 34 35 34 32 29 28 28 29
14 19 21 25 26 26 25 21 22 21 20 19 19 20 21 15 31 24 24 23 17 17 16 19 18 22 20 21 24 35 42 42 41 42 40 39 37 35 34 34 30 30 32
24 27 29 28 28 31 30 26 24 27 25 23 22 22 20 19 34 33 32 30 29 23 24 24 24 21 26 17 21 20 18 20 24 31 40 42 39 38 35 36 31 31 32
21 26 29 32 29 29 29 28 28 28 29 25 23 23 22 18 27 24 31 38 35 32 30 29 31 30 28 30 26 24 26 25 27 28 27 25 30 33 37 29 29 37 36
27 30 31 34 33 33 32 32 32 31 29 28 26 25 23 23 29 24 26 24 22 28 32 34 35 34 35 39 39 33 32 32 31 36 35 37 40 40 40 42 41 35 38
32 33 35 34 35 38 39 38 36 30 29 29 29 28 27 28 31 34 30 22 24 25 26 26 31 36 46 48 48 44 36 36 33 31 33 38 37 40 40 47 46 44 48
35 36 38 37 36 36 37 34 32 30 28 29 28 29 28 26 26 33 31 31 26 29 29 29 26 36 44 43 52 58 50 50 48 43 38 35 33 34 33 32 32 36 47
38 36 35 33 32 38 33 27 27 25 23 24 28 27 26 25 29 33 34 34 37 38 35 29 30 44 40 44 45 50 58 59 55 43 42 41 40 37 37 33 31 35 44
38 37 36 35 32 28 30 24 24 25 27 27 28 29 30 28 29 33 40 34 37 34 28 31 38 40 45 46 41 37 44 51 52 41 41 42 43 40 39 36 38 40 47
39 38 36 34 33 32 30 31 28 31 34 35 34 38 39 37 36 33 30 27 36 36 37 43 40 36 39 41 40 36 33 31 34 37 39 40 40 38 38 37 39 44 48
34 33 31 32 35 41 39 38 36 35 39 43 44 43 44 46 43 47 54 59 54 50 53 48 35 32 34 36 37 33 34 34 37 37 38 37 39 40 40 38 39 44 50
27 25 31 36 35 40 39 39 37 49 47 37 40 43 49 53 55 55 57 56 54 55 56 52 37 36 39 41 41 39 38 42 44 43 41 49 49 47 45 40 38 38 43
26 30 30 34 33 33 33 34 40 39 41 43 33 29 34 39 39 45 47 47 44 47 50 45 40 41 43 42 40 40 43 41 43 43 39 36 38 48 48 45 42 38 41
28 31 26 25 29 34 34 35 36 36 35 32 27 29 30 32 33 36 32 36 36 34 34 35 37 40 43 45 43 37 37 38 41 39 38 36 46 42 38 37 37 38 43
22 24 26 23 27 36 28 29 26 28 26 29 32 30 29 27 24 24 25 26 25 24 28 31 39 39 34 37 39 40 41 40 45 46 45 47 43 47 43 42 41 43 46
26 26 23 22 23 29 31 24 22 23 22 27 27 31 28 25 20 19 18 13 12 11 14 16 18 22 27 35 45 49 49 43 42 40 47 46 47 43 46 43 43 50 44
17 25 19 17 21 19 23 22 23 23 23 22 23 21 20 17 16 23 27 22 21 22 22 20 20 22 25 25 25 32 38 33 34 38 42 46 49 50 50 50 54 56 53
17 20 20 20 21 19 18 19 23 27 29 23 13 10 15 25 29 31 32 27 25 27 25 23 21 22 20 18 19 24 29 32 32 36 41 44 49 51 52 52 52 54 51
25 20 22 23 25 25 25 26 24 28 33 36 32 24 20 24 25 26 26 28 29 28 28 29 31 22 19 20 19 24 29 31 34 40 46 47 49 47 46 52 55 53 47
18 17 25 21 22 24 32 25 24 26 28 29 29 26 24 23 26 29 26 22 16 21 24 29 32 38 34 30 30 32 32 36 41 42 42 44 44 44 48 49 48 47 49
19 19 19 20 20 22 23 23 25 27 28 27 26 26 25 26 26 26 26 26 28 29 29 31 32 36 34 32 34 28 29 37 37 43 36 32 36 35 35 35 28 33 40
17 17 17 18 20 21 21 23 23 25 26 26 25 26 26 28 32 39 33 30 30 33 34 31 35 38 43 33 31 29 30 37 42 36 27 24 24 21 21 20 19 22 23
Wind_Direction_850mb
44 40 43 35 27 17 33 17 12 347 336 321 281 288 289 286 272 268 267 264 262 260 259 261 257 254 255 255 249 251 248 249 252 262 261 274 274 282 277 269 266 254 253
28 23 23 16 5 1 346 342 354 338 330 354 312 294 281 292 301 288 276 259 270 276 271 266 266 268 262 258 254 252 243 243 242 249 250 261 277 276 274 273 268 250 245
7 5 9 11 357 336 333 323 306 311 320 328 345 287 271 275 273 281 280 275 275 277 281 273 274 276 270 256 257 256 251 246 247 245 250 265 276 280 283 275 275 260 248
357 356 7 3 7 339 351 347 322 303 285 292 293 295 282 285 276 280 282 286 287 280 286 290 286 276 269 266 266 253 253 249 246 249 252 261 272 276 275 272 268 272 248
349 345 349 360 343 346 340 344 338 339 322 295 278 278 291 281 255 269 266 285 288 294 298 293 288 281 275 260 255 258 256 255 253 251 253 259 263 274 273 272 267 258 251
337 341 344 340 349 337 329 334 324 321 314 317 322 310 289 275 267 270 268 268 283 290 290 288 294 310 302 302 279 262 258 260 261 255 257 258 256 268 273 265 265 258 249
329 332 332 334 335 327 322 320 310 309 308 313 313 306 300 293 274 269 270 272 274 280 281 284 287 278 293 287 297 290 280 272 271 271 267 264 265 262 272 266 263 261 256
313 319 324 328 328 317 313 310 309 304 300 298 298 300 300 300 293 298 283 274 274 273 276 278 279 277 281 277 287 283 276 275 274 276 273 274 272 271 266 271 274 266 259
313 314 318 320 319 314 312 310 310 304 297 293 295 295 297 299 299 303 299 292 285 274 275 273 271 271 271 268 276 283 277 273 277 272 269 271 270 265 267 274 276 274 278
309 307 308 309 307 309 305 303 302 303 297 295 290 294 296 301 303 300 301 302 293 290 288 287 283 276 269 264 265 268 271 272 272 263 278 277 273 272 270 271 273 268 270
301 302 302 298 295 299 300 297 295 290 289 290 292 293 293 292 287 294 303 305 294 285 285 289 285 277 276 278 267 259 258 255 257 269 276 275 272 274 272 273 268 265 270
308 305 300 298 301 297 296 291 290 293 291 287 288 292 293 288 293 301 301 297 296 297 296 290 285 283 283 283 280 270 259 259 260 265 266 266 266 266 270 271 259 259 269
306 305 303 304 302 306 306 299 297 296 296 298 298 296 294 291 290 298 307 312 305 293 284 282 289 289 289 287 286 281 271 263 260 258 258 260 262 263 260 269 278 281 286
300 301 301 304 306 309 303 299 297 302 302 301 299 295 296 291 291 294 292 291 298 303 295 299 296 299 296 290 283 288 277 264 258 255 257 258 260 263 270 272 276 275 276
295 293 300 300 299 304 303 302 301 297 289 292 293 289 288 286 283 279 277 278 283 286 290 292 293 289 283 280 286 274 265 264 262 258 256 258 263 269 272 274 273 274 273
306 308 305 309 306 304 304 301 295 290 299 303 299 294 290 280 284 283 281 282 281 279 275 279 280 276 273 272 272 275 274 268 264 261 256 271 276 282 281 279 278 275 272
311 312 312 310 308 307 309 310 312 315 315 317 315 303 299 297 295 294 289 284 279 273 271 272 272 273 278 279 280 275 265 266 267 265 258 264 276 282 278 279 279 275 279
311 305 303 300 312 316 314 312 312 317 321 325 321 318 307 305 302 306 301 289 288 287 287 275 269 273 272 270 272 270 276 272 265 266 264 263 283 277 273 270 272 275 281
321 317 311 322 324 332 325 327 327 332 329 338 340 336 326 322 328 327 315 311 300 282 279 277 281 286 274 268 271 271 278 273 268 269 272 273 270 274 268 268 271 274 275
331 328 314 323 327 339 341 345 341 335 337 336 336 333 325 342 353 358 1 348 339 326 308 299 296 292 279 273 274 280 285 280 277 266 267 269 269 267 268 271 272 277 274
346 358 3 350 346 342 340 343 351 349 343 338 338 340 353 344 332 333 338 339 331 328 318 319 313 313 299 291 289 291 292 287 278 277 278 277 275 274 274 274 275 275 274
3 7 1 7 357 354 359 27 18 14 9 355 351 351 8 16 5 2 3 2 358 346 346 342 345 344 328 319 316 314 306 299 292 287 285 284 283 280 275 272 268 268 270
36 25 25 18 17 11 17 42 22 18 13 6 356 353 357 14 4 359 1 3 360 7 17 15 2 345 343 340 341 335 322 313 309 305 300 291 289 280 282 280 273 268 265
34 20 17 15 9 14 12 16 12 7 8 6 1 19 27 18 12 7 359 3 18 25 23 17 3 359 355 350 342 334 332 325 316 317 306 295 290 287 283 282 274 263 264
21 21 19 19 20 16 14 10 11 14 13 11 9 19 29 22 14 20 34 43 40 27 19 11 4 2 354 344 339 336 330 332 327 320 314 302 295 293 289 280 266 267 268
21 24 17 18 19 21 24 26 23 22 22 19 19 27 23 28 37 29 25 29 36 21 17 10 11 8 360 355 353 352 350 352 350 352 342 337 324 311 283 276 265 284 278